XM-3 (RHYTHM)

Last updated on Tue Jul 01 2025 00:02:44 GMT+0000 (Coordinated Universal Time)

1 28626U 05008A 25181.26521742 -.00000200 00000+0 00000+0 0 9994 2 28626 0.0384 164.1943 0000399 353.6495 129.8628 1.00269922 39093
UTC large
Height (km)
Speed (km/s)
/
Latitude / Longitude
Inclination (degrees)
Orbital Period (minutes)
Azimuth
Elevation
Range (km)
Doppler Factor

Next 0 passes for location: London (51.5072 / 0.1276)

Sorry there are no passes over London.